Showing default

TELKOMSAT 113BT, 58995

Orbit data source: Space-Track

TELKOMSAT 113BT, 58995 is a payload satellite owned by Telkom (ID) in GEO that was launched on Tue, 20 Feb 2024 UTC via an FALCON 9 launch vehicle from the Air Force Eastern Test Range (AFETR). Payload-class satellites include a variety of spacecraft equipped with specific instruments for various scientific and technological missions. These include communications satellites like Starlink; space stations such as the ISS; scientific satellites like the Hubble; Earth observation satellites from companies like Planet Labs, Umbra, and HawkEye 360; GPS; miniature CubeSats for education and research; and military/defense satellites.

Not visible in the next 10 days
Identifier
58995, 2024-035A
Orbit
GEO
Country
Flag of UnknownUnknown / INDO
Related business
Manufacturer
Thales Alenia
Mission
Operational Commercial Communications
Bus & Motor
SPACEBUS 4000B2, S400
Mass
4,000 kg wet, ~2,500 kg dry
Launch date (UTC)
2024-02-20 (2 years ago)
Launch vehicle
FALCON 9
Launch site
Air Force Eastern Test Range (AFETR)
Object type
Payload
Rocket body
Debris
Shape & HBR
Box + 2 Pan, 15.0 m
Radar Cross Section
48.465 m², Large (>1 m²)

Expand to show TLE details & history
Last TLE update: 18 hours ago

TLE from 18 hours ago
0 TELKOMSAT 113BT
1 58995U 24035A   25261.00392128  .00000000  00000-0  00000-0 0  9991
2 58995   0.0254 148.1927 0002034  54.0572 269.2899  1.00267146  5864
Epoch: 2025-09-18T00:05Z
TLE epoch observation values (Epoch: 2025-09-18T00:05:38.798Z)
Latitude
-0.03144°
Longitude
112.93485°
Altitude
35,787.46 km
Speed
3.075 km/s
True Right ascension
07h 26m 04s
True Declination
0° 01' 53"
Sunlit
Object was in daylight at epoch
Visualization orbit readout
Latitude
Unknown
Longitude
Unknown
Altitude
Unknown
Speed
Unknown
Apparent Right ascension
Unknown
Apparent Declination
Unknown
Sunlit
N/A
Visualization observer readout
Local Sidereal Time
11:07:53
Azimuth
Unknown
Elevation
Unknown
Doppler factor
Unknown
Orbital elements
Apogee altitude
35,797.543 km
Perigee altitude
35,780.389 km
Semi-major axis
42,167.103 km
Eccentricity
0.0002
Inclination
0.0254°
RAAN
148.1927°
Arg. of periapsis
54.0572°
True anomaly
269.26659°
Mean anomaly
269.2899°
Eccentric anomaly
269.27825°
Mean motion
0.25066 °/min
Orbital period
1,436.22 mins
BSTAR
0
Loading maneuver chart data...
Computing Atmospheric mass density...
Loading historical data...
Loading historical data...
Loading historical data...
Loading historical data...
Loading historical data...
Loading historical data...
Loading historical data...
Other satellites on launch #35 in the year 2024 (2024-02-20 UTC)

Documentation

Showing up to 5 results
|